Details for UPS at KONT




Go Back


Latest METAR
Local Time

KONT 181353Z 00000KT 10SM FEW010 16/03 A2990 RMK AO2 SLP112 FU FEW010 T01560033
18/09/2018, 07:15:20

Description
Results
UPS Logo
Number of Pilots based at KONT
0 Pilots Based here
Number of UPS Flights Departed from KONT
0 Flights Departed
Number of UPS Flights Arrived at KONT
0 Flights Arrived
Number of UPS Schedules Departing from KONT
188 Schedules
Number of UPS Schedules Arriving at KONT
206 Schedules
Number of UPS Schedules Departing from KONT availible today
44 Schedules Today
Number of UPS Schedules Arriving at KONT availible today
48 Schedules Today
Average Landing Rate at KONT
0 fpm
UPS Average Landing Rate at KONT
0 fpm
Total Fuel Purchased at KONT by UPS
0.00 kgs / 0.00 lbs

Pilots Based at KONT


Pilot ID
Pilot Name
Pilot Rank
No. of Flights
No. of Flying Hours
There are no pilots assigned to this hub!   Will you be the first?
Content